^^
Datos históricos de la estación: Murcia-Puente Tocinos
Diario Informe para Julio 3, 2019 Unidades:  Ingés    Métrico   Ambas
Diario Semanal Mensual Anual
  Máxima: Mínima: Promedio:
Temperatura: 87.6 °F 72 °F 79.2 °F
Punto de rocio: 70 °F 56.8 °F 64.8 °F
Humedad: 86% 36% 64%
Velocidad viento: 12mph 0mph 5.5mph
Racha viento: 23mph - -
Viento- - SE
Presión: 29.9 in 29.8 in -
Precipitación: 0 in    
 
 
Tabla de datos para Julio 3, 2019
Hora Temperatura Punto de rocio Presión Viento Velocidad viento Racha viento Humedad Intensidad lluvia(por hora) Nubes
00:00 75.4 °F 70 °F 29.9 in NE 5 mph 7 mph 83% 0 in
00:05 75.4 °F 70 °F 29.9 in NE 5 mph 7 mph 83% 0 in
00:10 75.2 °F 69.6 °F 29.9 in ENE 4.7 mph 5.8 mph 83% 0 in
00:15 75 °F 70 °F 29.9 in NE 5 mph 6 mph 84% 0 in
00:20 75 °F 70 °F 29.9 in NNE 3.1 mph 5.8 mph 84% 0 in
00:25 75 °F 70 °F 29.9 in NE 3 mph 5 mph 84% 0 in
00:30 75 °F 70 °F 29.9 in NNE 4 mph 4.6 mph 84% 0 in
00:35 75 °F 70 °F 29.9 in NNE 5 mph 5 mph 84% 0 in
00:40 75 °F 70 °F 29.9 in NNE 3.1 mph 4.6 mph 84% 0 in
00:45 75 °F 70 °F 29.9 in NNE 3 mph 5 mph 84% 0 in
00:50 75 °F 70 °F 29.9 in NNE 2.4 mph 4.6 mph 84% 0 in
00:55 74.8 °F 69.6 °F 29.9 in NNE 2 mph 5 mph 84% 0 in
01:00 74.8 °F 69.6 °F 29.9 in NNE 3 mph 6 mph 84% 0 in
01:05 74.8 °F 69.6 °F 29.9 in NNE 3 mph 5 mph 84% 0 in
01:10 74.7 °F 70 °F 29.9 in NNE 2 mph 5 mph 85% 0 in
01:15 74.8 °F 70 °F 29.9 in NE 2 mph 5 mph 85% 0 in
01:20 74.8 °F 70 °F 29.9 in NE 2 mph 5 mph 85% 0 in
01:25 74.7 °F 70 °F 29.9 in NE 2 mph 5 mph 85% 0 in
01:30 74.7 °F 69.8 °F 29.9 in NE 2.9 mph 5.8 mph 85% 0 in
01:35 74.7 °F 69.8 °F 29.9 in NE 2 mph 6 mph 85% 0 in
01:40 74.7 °F 69.8 °F 29.9 in NNE 2 mph 4 mph 85% 0 in
01:45 74.5 °F 69.6 °F 29.9 in NNE 2 mph 5 mph 85% 0 in
01:50 74.5 °F 70 °F 29.9 in ENE 2.9 mph 5.8 mph 86% 0 in
01:55 74.5 °F 70 °F 29.9 in NE 2 mph 5 mph 86% 0 in
02:00 74.5 °F 70 °F 29.9 in NE 2 mph 5 mph 86% 0 in
02:05 74.5 °F 69.6 °F 29.9 in North 2.4 mph 3.5 mph 85% 0 in
02:10 74.5 °F 69.6 °F 29.9 in North 2 mph 5 mph 85% 0 in
02:15 74.5 °F 69.6 °F 29.9 in NNO 2 mph 3 mph 85% 0 in
02:20 74.5 °F 69.6 °F 29.9 in NNO 1.8 mph 4.6 mph 85% 0 in
02:25 74.5 °F 69.6 °F 29.9 in NNO 2 mph 4 mph 85% 0 in
02:30 74.3 °F 69.1 °F 29.9 in NO 2.4 mph 4.6 mph 84% 0 in
02:35 74.1 °F 69.1 °F 29.9 in NO 2 mph 5 mph 84% 0 in
02:40 74.1 °F 69.1 °F 29.9 in NO 2.4 mph 4.6 mph 84% 0 in
02:45 73.9 °F 69.1 °F 29.9 in NO 2 mph 5 mph 85% 0 in
02:50 73.9 °F 68.7 °F 29.9 in NO 2 mph 5 mph 84% 0 in
02:55 73.9 °F 68.7 °F 29.9 in NO 2 mph 5 mph 84% 0 in
03:00 73.9 °F 68.7 °F 29.9 in NO 2 mph 5 mph 84% 0 in
03:05 73.9 °F 69.1 °F 29.9 in NO 2 mph 5 mph 85% 0 in
03:10 73.8 °F 69.1 °F 29.9 in ONO 2 mph 2.3 mph 85% 0 in
03:15 73.8 °F 69.1 °F 29.9 in ONO 2 mph 4 mph 85% 0 in
03:20 73.8 °F 69.1 °F 29.9 in ONO 2 mph 5 mph 85% 0 in
03:25 73.8 °F 69.1 °F 29.9 in ONO 2 mph 5 mph 85% 0 in
03:30 73.8 °F 69.1 °F 29.9 in ONO 2 mph 4 mph 85% 0 in
03:35 73.8 °F 69.1 °F 29.9 in ONO 2 mph 3 mph 85% 0 in
03:40 73.8 °F 69.1 °F 29.9 in ONO 1.4 mph   85% 0 in
03:45 73.8 °F 69.1 °F 29.9 in ONO 1 mph 3 mph 85% 0 in
03:50 73.9 °F 69.1 °F 29.9 in Calm     85% 0 in
03:55 73.9 °F 68.7 °F 29.9 in Calm   5 mph 84% 0 in
04:00 73.9 °F 69.1 °F 29.9 in ONO 2 mph 5 mph 85% 0 in
04:05 73.9 °F 68.7 °F 29.9 in Oeste 2 mph 5 mph 84% 0 in
04:10 74.1 °F 69.1 °F 29.9 in OSO 2.4 mph 4.6 mph 84% 0 in
04:15 74.1 °F 69.1 °F 29.9 in Oeste 2 mph 6 mph 84% 0 in
04:20 73.9 °F 68.4 °F 29.9 in ONO 3.1 mph 4.6 mph 83% 0 in
04:25 73.9 °F 68.7 °F 29.9 in ONO 3 mph 6 mph 84% 0 in
04:30 73.8 °F 68.5 °F 29.9 in ONO 5 mph 6 mph 84% 0 in
04:35 73.6 °F 68.5 °F 29.9 in Oeste 5 mph 6 mph 84% 0 in
04:40 73.6 °F 68.4 °F 29.9 in Oeste 3 mph 6 mph 84% 0 in
04:45 73.4 °F 68.4 °F 29.9 in Oeste 3 mph 7 mph 84% 0 in
04:50 73.4 °F 68.4 °F 29.9 in Oeste 4 mph 5.8 mph 84% 0 in
04:55 73.2 °F 68.2 °F 29.9 in Oeste 5 mph 7 mph 84% 0 in
05:00 73.2 °F 68.2 °F 29.9 in Oeste 5 mph 6 mph 84% 0 in
05:05 73 °F 68 °F 29.9 in ONO 5 mph 5 mph 84% 0 in
05:10 73 °F 67.8 °F 29.9 in Oeste 2.9 mph 2.3 mph 84% 0 in
05:15 73 °F 67.8 °F 29.9 in Oeste 2 mph 4 mph 84% 0 in
05:20 73 °F 67.8 °F 29.9 in Oeste 2.4 mph 2.9 mph 84% 0 in
05:25 73 °F 67.8 °F 29.9 in ONO 2.4 mph 4.6 mph 84% 0 in
05:30 72.9 °F 67.6 °F 29.9 in Oeste 2 mph 5 mph 84% 0 in
05:35 72.9 °F 67.6 °F 29.9 in Oeste 2 mph 6 mph 84% 0 in
05:40 72.7 °F 67.6 °F 29.9 in Oeste 3.1 mph 4.6 mph 84% 0 in
05:45 72.7 °F 67.6 °F 29.9 in Oeste 3 mph 6 mph 84% 0 in
05:50 72.5 °F 67.5 °F 29.9 in OSO 3.1 mph 4.6 mph 84% 0 in
05:55 72.3 °F 67.3 °F 29.9 in Oeste 3 mph 5 mph 84% 0 in
06:00 72.3 °F 67.3 °F 29.9 in OSO 3 mph 5 mph 84% 0 in
06:05 72.3 °F 67.3 °F 29.9 in Oeste 3 mph 5 mph 84% 0 in
06:10 72.3 °F 67.3 °F 29.9 in Oeste 3.1 mph 5.8 mph 84% 0 in
06:15 72.3 °F 67.6 °F 29.9 in Oeste 3 mph 5 mph 85% 0 in
06:20 72.3 °F 67.3 °F 29.9 in OSO 2 mph 6 mph 84% 0 in
06:25 72.3 °F 67.3 °F 29.9 in SO 2 mph 5 mph 84% 0 in
06:30 72.3 °F 67.3 °F 29.9 in SSO 2 mph 5 mph 84% 0 in
06:35 72.3 °F 67.3 °F 29.9 in Sur 2 mph 5 mph 84% 0 in
06:40 72.5 °F 66.9 °F 29.9 in SO 3.1 mph 5.2 mph 83% 0 in
06:45 72.3 °F 66.9 °F 29.9 in SSO 3 mph 6 mph 83% 0 in
06:50 72.3 °F 66.9 °F 29.9 in SO 4 mph 4.6 mph 83% 0 in
06:55 72.3 °F 66.6 °F 29.9 in SO 4 mph 4.6 mph 82% 0 in
07:00 72.1 °F 66.4 °F 29.9 in SSO 5 mph 7 mph 82% 0 in
07:05 72 °F 66.2 °F 29.9 in SSO 5 mph 7 mph 82% 0 in
07:10 72 °F 66.2 °F 29.9 in Oeste 4.3 mph 3.6 mph 82% 0 in
07:15 72 °F 66.2 °F 29.9 in OSO 5 mph 5 mph 82% 0 in
07:20 72 °F 66.2 °F 29.9 in SO 2.9 mph 3.5 mph 82% 0 in
07:25 72 °F 66.2 °F 29.9 in SO 2 mph 4 mph 82% 0 in
07:30 72.1 °F 66.4 °F 29.9 in SO 2 mph 4 mph 82% 0 in
07:35 72.1 °F 66 °F 29.9 in SO 1.8 mph 3.5 mph 81% 0 in
07:40 72.3 °F 66.2 °F 29.9 in SO 2 mph 5 mph 81% 0 in
07:45 72.3 °F 66.4 °F 29.9 in SO 2 mph 5 mph 81% 0 in
07:50 72.7 °F 66.6 °F 29.9 in Oeste 2 mph 2.3 mph 81% 0 in
07:55 72.9 °F 66.7 °F 29.9 in Oeste 2 mph 4 mph 81% 0 in
08:00 72.9 °F 66.7 °F 29.9 in Oeste 2 mph 5 mph 81% 0 in
08:05 73 °F 66.7 °F 29.9 in Oeste 2 mph 4 mph 81% 0 in
08:10 73 °F 66.9 °F 29.9 in OSO 2 mph 3.6 mph 81% 0 in
08:15 73 °F 66.9 °F 29.9 in OSO 2 mph 5 mph 81% 0 in
08:20 73.2 °F 66.9 °F 29.9 in Oeste 2.4 mph 4.6 mph 81% 0 in
08:25 73.2 °F 66.7 °F 29.9 in OSO 2 mph 6 mph 80% 0 in
08:30 73.6 °F 66.9 °F 29.9 in SO 2.9 mph 3.5 mph 80% 0 in
08:35 73.8 °F 66.4 °F 29.9 in SO 2 mph 7 mph 78% 0 in
08:40 73.6 °F 66.4 °F 29.9 in Sur 5.2 mph 8.1 mph 78% 0 in
08:45 73.6 °F 66.4 °F 29.9 in Sur 5 mph 8 mph 78% 0 in
08:50 73.8 °F 66.6 °F 29.9 in SSO 5 mph 7 mph 78% 0 in
08:55 73.8 °F 66.6 °F 29.9 in SO 5 mph 6 mph 78% 0 in
09:00 73.9 °F 66.6 °F 29.9 in SO 5 mph 6 mph 78% 0 in
09:05 74.1 °F 66.4 °F 29.9 in SO 5 mph 7 mph 77% 0 in
09:10 74.3 °F 66.2 °F 29.9 in SO 4.3 mph 5.8 mph 76% 0 in
09:15 74.5 °F 66.4 °F 29.9 in SO 5 mph 8 mph 76% 0 in
09:20 74.7 °F 66.6 °F 29.9 in SSO 5 mph 8 mph 76% 0 in
09:25 74.8 °F 66.4 °F 29.9 in SSO 5 mph 7 mph 75% 0 in
09:30 75 °F 66.2 °F 29.9 in SO 5 mph 8 mph 74% 0 in
09:35 75 °F 66.4 °F 29.9 in SO 5 mph 8 mph 74% 0 in
09:40 75.6 °F 66.4 °F 29.9 in Sur 4.3 mph 5.8 mph 73% 0 in
09:45 75.7 °F 66.6 °F 29.9 in SSO 5 mph 7 mph 73% 0 in
09:50 75.9 °F 65.8 °F 29.9 in SSE 4.3 mph 4.6 mph 71% 0 in
09:55 76.3 °F 66.2 °F 29.9 in SO 5 mph 7 mph 71% 0 in
10:00 76.6 °F 65.7 °F 29.9 in SO 5 mph 8 mph 69% 0 in
10:05 77 °F 66 °F 29.9 in OSO 5 mph 6 mph 69% 0 in
10:10 77.4 °F 66 °F 29.9 in SSO 3.1 mph 3.1 mph 68% 0 in
10:15 77.5 °F 65.3 °F 29.9 in SSO 3 mph 8 mph 66% 0 in
10:20 77.7 °F 64.9 °F 29.9 in Sur 4 mph 5.8 mph 65% 0 in
10:25 78.3 °F 64.9 °F 29.9 in Sur 5 mph 7 mph 64% 0 in
10:30 78.8 °F 64.8 °F 29.9 in SSO 3.1 mph 2.3 mph 62% 0 in
10:35 79.2 °F 64.6 °F 29.9 in SSE 3.1 mph 4 mph 61% 0 in
10:40 79.5 °F 63.3 °F 29.9 in SSO 3.1 mph 5.8 mph 58% 0 in
10:45 79.7 °F 62.1 °F 29.9 in Sur 3 mph 6 mph 55% 0 in
10:50 80.2 °F 61 °F 29.9 in NE 4 mph 8.1 mph 52% 0 in
10:55 80.4 °F 61.2 °F 29.9 in Este 4 mph 8.1 mph 52% 0 in
11:00 81 °F 60.6 °F 29.9 in NE 5 mph 9 mph 50% 0 in
11:05 81.1 °F 60.6 °F 29.9 in NNE 5 mph 12 mph 50% 0 in
11:10 81.1 °F 61.3 °F 29.9 in ENE 5.4 mph 9.2 mph 51% 0 in
11:15 81.5 °F 61.2 °F 29.9 in NNE 6 mph 13 mph 50% 0 in
11:20 81.1 °F 61.3 °F 29.9 in NNE 6.9 mph 10.4 mph 51% 0 in
11:25 81.3 °F 61 °F 29.9 in NE 7 mph 12 mph 50% 0 in
11:30 81.9 °F 61.3 °F 29.9 in ENE 6.4 mph 11.5 mph 50% 0 in
11:35 82.2 °F 61.7 °F 29.9 in ENE 7 mph 13 mph 50% 0 in
11:40 82.2 °F 62.2 °F 29.9 in NE 7 mph 12 mph 51% 0 in
11:45 82 °F 62.1 °F 29.9 in NE 7 mph 13 mph 51% 0 in
11:50 82.8 °F 62.8 °F 29.9 in NNE 6.4 mph 9.2 mph 51% 0 in
11:55 82.9 °F 62.4 °F 29.9 in NE 6.4 mph 9.2 mph 50% 0 in
12:00 82.8 °F 62.8 °F 29.9 in NE 6 mph 12 mph 51% 0 in
12:05 82.9 °F 62.4 °F 29.9 in NE 6 mph 15 mph 50% 0 in
12:10 82.9 °F 61.9 °F 29.9 in NNE 7 mph 15 mph 49% 0 in
12:15 83.5 °F 62.2 °F 29.9 in NE 7 mph 13 mph 49% 0 in
12:20 83.7 °F 60.6 °F 29.9 in NE 8.7 mph 12.7 mph 46% 0 in
12:25 83.8 °F 60.3 °F 29.9 in NE 9 mph 14 mph 45% 0 in
12:30 84 °F 59.2 °F 29.9 in North 9.7 mph 9.2 mph 43% 0 in
12:35 84.4 °F 60.1 °F 29.9 in NE 9 mph 16 mph 44% 0 in
12:40 84 °F 61 °F 29.9 in NE 8 mph 17 mph 46% 0 in
12:45 84 °F 61.5 °F 29.9 in NE 8 mph 14 mph 47% 0 in
12:50 84.6 °F 62.1 °F 29.9 in NE 7 mph 15 mph 47% 0 in
12:55 84.7 °F 62.2 °F 29.9 in NE 7 mph 12 mph 47% 0 in
13:00 85.3 °F 61 °F 29.9 in NE 6 mph 15 mph 44% 0 in
13:05 84.9 °F 62.4 °F 29.9 in Este 6.2 mph 10.4 mph 47% 0 in
13:10 84.7 °F 61.7 °F 29.9 in NO 7.6 mph 6.9 mph 46% 0 in
13:15 85.1 °F 62.1 °F 29.9 in NE 8 mph 15 mph 46% 0 in
13:20 84.9 °F 62.4 °F 29.9 in ENE 7.6 mph 11.5 mph 47% 0 in
13:25 85.5 °F 62.2 °F 29.9 in NE 8 mph 15 mph 46% 0 in
13:30 85.6 °F 62.4 °F 29.9 in Este 7.6 mph 13.8 mph 46% 0 in
13:35 86.4 °F 61.9 °F 29.9 in NE 8 mph 15 mph 44% 0 in
13:40 86.4 °F 61.9 °F 29.9 in NE 7.4 mph 12.7 mph 44% 0 in
13:45 86.5 °F 60.6 °F 29.9 in NE 7 mph 16 mph 42% 0 in
13:50 86.5 °F 61.3 °F 29.9 in NE 9 mph 16 mph 43% 0 in
13:55 86.4 °F 61.2 °F 29.9 in ENE 9 mph 15 mph 43% 0 in
14:00 86.5 °F 62.8 °F 29.9 in ENE 9 mph 19 mph 45% 0 in
14:05 86.5 °F 62.1 °F 29.9 in ENE 9 mph 17 mph 44% 0 in
14:10 86.2 °F 61.7 °F 29.9 in Este 9.7 mph 16.1 mph 44% 0 in
14:15 86.4 °F 61.2 °F 29.9 in ENE 9 mph 17 mph 43% 0 in
14:20 86.5 °F 61.3 °F 29.9 in NE 9.7 mph 16.1 mph 43% 0 in
14:25 86.5 °F 61.3 °F 29.9 in ENE 9 mph 16 mph 43% 0 in
14:30 86.7 °F 61 °F 29.9 in Este 7.6 mph 9.2 mph 42% 0 in
14:35 86.9 °F 61 °F 29.9 in ENE 8 mph 16 mph 42% 0 in
14:40 86.7 °F 61 °F 29.9 in ENE 8.7 mph 15 mph 42% 0 in
14:45 86.4 °F 60.6 °F 29.9 in NE 8.7 mph 16.1 mph 42% 0 in
14:50 86.7 °F 58.8 °F 29.9 in Este 8.5 mph 15 mph 39% 0 in
14:55 86.5 °F 59.4 °F 29.9 in Este 8 mph 15 mph 40% 0 in
15:00 86.7 °F 58.8 °F 29.9 in ENE 9 mph 15 mph 39% 0 in
15:05 86.7 °F 58.8 °F 29.9 in ENE 9 mph 15 mph 39% 0 in
15:10 87.1 °F 56.8 °F 29.9 in Este 8.5 mph 13.8 mph 36% 0 in
15:15 87.1 °F 59.2 °F 29.9 in ENE 8 mph 16 mph 39% 0 in
15:20 87.3 °F 58.6 °F 29.9 in Este 8 mph 17 mph 38% 0 in
15:25 87.6 °F 58.8 °F 29.9 in Este 8 mph 16 mph 38% 0 in
15:30 87.3 °F 58.6 °F 29.9 in ENE 8 mph 16 mph 38% 0 in
15:35 87.4 °F 57.4 °F 29.9 in Este 8 mph 16 mph 36% 0 in
15:40 87.1 °F 57.7 °F 29.9 in NE 9.7 mph 9.2 mph 37% 0 in
15:45 87.3 °F 57.7 °F 29.9 in NE 9 mph 18 mph 37% 0 in
15:50 87.3 °F 58.6 °F 29.9 in Este 8.5 mph 19.6 mph 38% 0 in
15:55 87.4 °F 58.6 °F 29.9 in ENE 8 mph 16 mph 38% 0 in
16:00 87.1 °F 59.2 °F 29.9 in NE 10 mph 22 mph 39% 0 in
16:05 86.9 °F 57.6 °F 29.9 in NE 10 mph 22 mph 37% 0 in
16:10 87.1 °F 59.2 °F 29.9 in ENE 10 mph 17 mph 39% 0 in
16:15 87.3 °F 57 °F 29.9 in ENE 10 mph 16 mph 36% 0 in
16:20 87.1 °F 58.5 °F 29.9 in Este 9.7 mph 12.7 mph 38% 0 in
16:25 86.5 °F 57.9 °F 29.9 in SE 9.7 mph 18.5 mph 38% 0 in
16:30 87.1 °F 57.7 °F 29.9 in Este 10 mph 15 mph 37% 0 in
16:35 86.9 °F 59 °F 29.9 in ENE 10 mph 17 mph 39% 0 in
16:40 86.5 °F 58.6 °F 29.9 in ENE 10.2 mph 13.8 mph 39% 0 in
16:45 86.4 °F 58.5 °F 29.9 in NE 10 mph 21 mph 39% 0 in
16:50 86.4 °F 57.7 °F 29.9 in ENE 10.2 mph 16.1 mph 38% 0 in
16:55 86.5 °F 59.4 °F 29.9 in ENE 10 mph 17 mph 40% 0 in
17:00 86.7 °F 61 °F 29.9 in ENE 9 mph 18 mph 42% 0 in
17:05 86.5 °F 60.6 °F 29.9 in ENE 9 mph 18 mph 42% 0 in
17:10 86 °F 58.8 °F 29.9 in NE 10 mph 15 mph 40% 0 in
17:15 85.6 °F 60.1 °F 29.9 in NE 10 mph 21 mph 42% 0 in
17:20 86 °F 59.5 °F 29.9 in ENE 10.7 mph 12.7 mph 41% 0 in
17:25 85.6 °F 58.5 °F 29.9 in NE 10 mph 23 mph 40% 0 in
17:30 85.6 °F 58.5 °F 29.9 in ENE 10.2 mph 16.1 mph 40% 0 in
17:35 85.6 °F 58.5 °F 29.9 in Este 10.2 mph 18.4 mph 40% 0 in
17:40 85.6 °F 58.5 °F 29.9 in ENE 11.2 mph 13.8 mph 40% 0 in
17:45 85.8 °F 60.1 °F 29.9 in ENE 12 mph 17 mph 42% 0 in
17:50 85.5 °F 59.7 °F 29.9 in ENE 9 mph 19 mph 42% 0 in
17:55 85.3 °F 58.8 °F 29.9 in NE 9 mph 20 mph 41% 0 in
18:00 85.3 °F 58.8 °F 29.9 in NE 10 mph 21 mph 41% 0 in
18:05 84.9 °F 57.9 °F 29.9 in NE 10 mph 17 mph 40% 0 in
18:10 84.7 °F 57.7 °F 29.9 in NE 11.4 mph 21.9 mph 40% 0 in
18:15 84.9 °F 58.6 °F 29.9 in NE 11.4 mph 16.1 mph 41% 0 in
18:20 85.3 °F 58.8 °F 29.9 in NNE 10 mph 15 mph 41% 0 in
18:25 84.9 °F 57.9 °F 29.9 in NE 10 mph 17 mph 40% 0 in
18:30 84.9 °F 58.6 °F 29.9 in ENE 10.2 mph 19.6 mph 41% 0 in
18:35 84.7 °F 59.2 °F 29.8 in NE 10.2 mph 16.1 mph 42% 0 in
18:40 84.6 °F 60.3 °F 29.8 in NNE 10 mph 12.7 mph 44% 0 in
18:45 84.4 °F 61.3 °F 29.8 in NE 10 mph 19 mph 46% 0 in
18:50 84 °F 62.2 °F 29.8 in NE 10 mph 16.1 mph 48% 0 in
18:55 83.8 °F 61.3 °F 29.8 in NE 10 mph 18 mph 47% 0 in
19:00 83.7 °F 62.4 °F 29.8 in NE 10 mph 19 mph 49% 0 in
19:05 83.1 °F 63.1 °F 29.8 in NE 10 mph 14 mph 51% 0 in
19:10 83.3 °F 62.8 °F 29.8 in ENE 9.7 mph 16.1 mph 50% 0 in
19:15 83.5 °F 63.3 °F 29.8 in NE 9.7 mph 15 mph 51% 0 in
19:20 82.9 °F 64 °F 29.8 in North 9.2 mph 16.1 mph 53% 0 in
19:25 82.9 °F 64.6 °F 29.8 in NE 9 mph 15 mph 54% 0 in
19:30 82.8 °F 64.9 °F 29.8 in NE 9 mph 15 mph 55% 0 in
19:35 82.8 °F 65.5 °F 29.8 in ENE 9 mph 16 mph 56% 0 in
19:40 82.9 °F 65.7 °F 29.8 in ENE 6.4 mph 8.1 mph 56% 0 in
19:45 82.9 °F 65.7 °F 29.8 in ENE 7 mph 12 mph 56% 0 in
19:50 82.8 °F 65.5 °F 29.9 in NE 6.9 mph 11.5 mph 56% 0 in
19:55 82.8 °F 65.5 °F 29.9 in ENE 7 mph 14 mph 56% 0 in
20:00 82.8 °F 66 °F 29.9 in ENE 7 mph 10 mph 57% 0 in
20:05 82.8 °F 65.8 °F 29.9 in ENE 7 mph 15 mph 57% 0 in
20:10 82.4 °F 64 °F 29.9 in ENE 7 mph 15 mph 54% 0 in
20:15 82.4 °F 62.4 °F 29.9 in NE 7 mph 15 mph 51% 0 in
20:20 82.6 °F 65.3 °F 29.9 in NE 8 mph 13 mph 56% 0 in
20:25 82.2 °F 64.9 °F 29.9 in NE 8 mph 13 mph 56% 0 in
20:30 82.2 °F 64.9 °F 29.9 in NNE 5.9 mph 11.2 mph 56% 0 in
20:35 82.2 °F 64.9 °F 29.9 in NE 6 mph 11 mph 56% 0 in
20:40 82 °F 65.3 °F 29.9 in ESE 6.4 mph 9.2 mph 57% 0 in
20:45 81.9 °F 65.7 °F 29.9 in ENE 7 mph 12 mph 58% 0 in
20:50 81.5 °F 65.3 °F 29.9 in ENE 7 mph 14 mph 58% 0 in
20:55 81.3 °F 65.7 °F 29.9 in ENE 7 mph 12 mph 59% 0 in
21:00 81 °F 65.8 °F 29.9 in ENE 6 mph 10 mph 60% 0 in
21:05 81 °F 66.2 °F 29.9 in ENE 6 mph 12 mph 61% 0 in
21:10 80.8 °F 66.6 °F 29.9 in ENE 6 mph 10 mph 62% 0 in
21:15 80.4 °F 66.7 °F 29.9 in NE 6 mph 12 mph 63% 0 in
21:20 80.1 °F 66.4 °F 29.9 in ENE 5.9 mph 9.2 mph 63% 0 in
21:25 80.1 °F 66.7 °F 29.9 in ENE 6 mph 9 mph 64% 0 in
21:30 79.7 °F 66.4 °F 29.9 in ENE 5.2 mph 11.5 mph 64% 0 in
21:35 79.3 °F 66 °F 29.9 in NE 5 mph 12 mph 64% 0 in
21:40 79.3 °F 66.6 °F 29.9 in ENE 6 mph 10 mph 65% 0 in
21:45 79.2 °F 66.7 °F 29.9 in ENE 6 mph 9 mph 66% 0 in
21:50 78.8 °F 66.9 °F 29.9 in NE 6 mph 9 mph 67% 0 in
21:55 78.6 °F 66.7 °F 29.9 in ENE 6 mph 7 mph 67% 0 in
22:00 78.4 °F 66.6 °F 29.9 in ENE 5 mph 10 mph 67% 0 in
22:05 78.4 °F 66.9 °F 29.9 in ENE 5 mph 10 mph 68% 0 in
22:10 78.3 °F 66.7 °F 29.9 in ENE 4 mph 4.6 mph 68% 0 in
22:15 78.3 °F 66.7 °F 29.9 in ENE 5 mph 6 mph 68% 0 in
22:20 78.1 °F 66.2 °F 29.9 in ENE 3.6 mph 8.1 mph 67% 0 in
22:25 78.1 °F 65.7 °F 29.9 in ENE 3 mph 8 mph 66% 0 in
22:30 77.9 °F 65.7 °F 29.9 in NE 4 mph 5.8 mph 66% 0 in
22:35 77.7 °F 65.5 °F 29.9 in ENE 5 mph 6 mph 66% 0 in
22:40 77.7 °F 65.5 °F 29.9 in ENE 2 mph 7 mph 66% 0 in
22:45 77.5 °F 65.3 °F 29.9 in ENE 2 mph 6 mph 66% 0 in
22:50 77.5 °F 65.3 °F 29.9 in NE 3.1 mph 6.9 mph 66% 0 in
22:55 77.5 °F 65.3 °F 29.9 in NE 3 mph 7 mph 66% 0 in
23:00 77.4 °F 65.5 °F 29.9 in NE 5 mph 6 mph 67% 0 in
23:05 77.4 °F 66 °F 29.9 in NE 5 mph 6 mph 68% 0 in
23:10 77.2 °F 65.8 °F 29.9 in NE 3.6 mph 4.7 mph 68% 0 in
23:15 77.2 °F 66.2 °F 29.9 in NE 3 mph 7 mph 69% 0 in
23:20 77 °F 66 °F 29.9 in NE 3.6 mph 5.8 mph 69% 0 in
23:25 76.8 °F 65.8 °F 29.9 in NE 3 mph 6 mph 69% 0 in
23:30 76.8 °F 65.8 °F 29.9 in NE 4 mph 4.6 mph 69% 0 in
23:35 76.6 °F 65.7 °F 29.9 in NE 5 mph 6 mph 69% 0 in
23:40 76.6 °F 66 °F 29.9 in NE 3.6 mph 4.6 mph 70% 0 in
23:45 76.5 °F 65.8 °F 29.9 in NNE 3 mph 6 mph 70% 0 in
23:50 76.3 °F 65.8 °F 29.9 in NE 4.3 mph 6.2 mph 70% 0 in
23:55 76.1 °F 65.7 °F 29.9 in NE 5 mph 7 mph 70% 0 in
Murcia-Puente Tocinos, España
Compliments of Weather Underground - 3.5 mb

La estación de MeteoMurcia.com, publica sus datos en los siguientes proyectos:

Weather Underground PWS IMURCIAP2 Meteoclimatic www.awekas.at

W3Counter
Web Analytics